This is the latest recevied weather packets stored in our database for station/object IU1INZ-13. If no packets are shown the sender has not sent any weather packets the latest 1 day(s).
| Time | Temp. | Humidity | Pressure | Rain* | Wind** | Luminosity | Snow |
|---|---|---|---|---|---|---|---|
| 1836274705 | 16.11° C | 92% | 1026.7 hPa | 0 mm | 0 m/s | - | - |
| 1778040938 | 11.67° C | 93% | 1009.2 hPa | 0.51 mm | 0.89 m/s, 56° | - | - |
| 1778040034 | 11.67° C | 93% | 1009.2 hPa | 0.51 mm | 1.34 m/s, 61° | - | - |
| 1778039130 | 11.67° C | 93% | 1009.1 hPa | 0.25 mm | 0.89 m/s, 65° | - | - |
| 1778038235 | 11.67° C | 93% | 1009.3 hPa | 0 mm | 0.89 m/s, 46° | - | - |
| 1778037342 | 12.22° C | 93% | 1009.7 hPa | 0 mm | 0.45 m/s, 68° | - | - |
| 1778036433 | 12.22° C | 93% | 1009.8 hPa | 0 mm | 0.45 m/s, 73° | - | - |
| 1778035534 | 12.22° C | 93% | 1009.9 hPa | 0 mm | 0.89 m/s, 63° | - | - |
| 1778034637 | 12.22° C | 93% | 1010.1 hPa | 0 mm | 1.79 m/s, 46° | - | - |
| 1778033734 | 12.22° C | 93% | 1010.2 hPa | 0 mm | 0.89 m/s, 63° | - | - |
| 1778032832 | 12.22° C | 93% | 1010.3 hPa | 0.25 mm | 0.89 m/s, 71° | - | - |
| 1778031931 | 12.22° C | 93% | 1010.2 hPa | 0.51 mm | 0.89 m/s, 58° | - | - |
| 1778031030 | 12.22° C | 93% | 1010.4 hPa | 1.02 mm | 0.45 m/s, 59° | - | - |
| 1778030130 | 12.22° C | 92% | 1010.7 hPa | 1.27 mm | 0.89 m/s, 18° | - | - |
| 1778029234 | 12.22° C | 92% | 1011.1 hPa | 1.02 mm | 0.45 m/s, 39° | - | - |
| 1778028353 | 12.22° C | 92% | 1011.2 hPa | 0.76 mm | 0.45 m/s, 60° | - | - |
| 1778027432 | 12.22° C | 92% | 1011.6 hPa | 0 mm | 0.45 m/s, 68° | - | - |
| 1778026538 | 12.22° C | 92% | 1011.8 hPa | 0 mm | 0.45 m/s, 70° | - | - |
| 1778025634 | 12.22° C | 92% | 1011.9 hPa | 0 mm | 0.45 m/s, 74° | - | - |
| 1778024762 | 12.22° C | 92% | 1012.2 hPa | 0 mm | 0.45 m/s, 56° | - | - |
| 1778023831 | 12.22° C | 92% | 1012.1 hPa | 0 mm | 0.45 m/s, 9° | - | - |
| 1778022934 | 12.22° C | 92% | 1012.2 hPa | 0 mm | 0.45 m/s, 18° | - | - |
| 1778022035 | 12.22° C | 91% | 1012.4 hPa | 0 mm | 0.45 m/s, 65° | - | - |
| 1778021134 | 12.22° C | 91% | 1012.6 hPa | 0 mm | 0 m/s | - | - |
| 1778020231 | 12.22° C | 91% | 1012.5 hPa | 0 mm | 0.45 m/s, 0° | - | - |
* Rain latest hour (hover to see other rain measurements)
** Current wind speed in m/s (hover to see current wind gust speed)